Location: Caltech
(34.1382°N, 118.1253°W)
Time: 18:44:14
(UTC-07:00)

Daily predictions for brighter satellites

Satellite Brightness Start Highest point End
(mag) Time Altitude Azimuth Time Altitude Azimuth Time Altitude Azimuth
ALOS 2.5 20:18:46 10° SSE 20:23:20 56° ENE 20:27:54 10° N
Meteor 2-9 Rocket 4.4 20:19:23 10° N 20:25:06 62° E 20:30:53 10° SSE
ISS -0.6 20:24:14 10° W 20:26:59 24° NW 20:29:43 10° NNE
Timation 1 Rocket 4.5 20:21:09 10° NNW 20:27:09 66° ENE 20:33:04 10° SSE
Cosmos 1606 Rocket 4.5 20:25:18 10° NNW 20:29:35 52° W 20:33:49 10° S
Meteor 1-15 Rocket 4.3 20:24:25 10° N 20:30:01 65° E 20:35:40 10° SSE
Atlas Centaur 2 2.8 20:27:08 10° WSW 20:33:31 65° S 20:41:23 10° E
H-2A R/B 3.2 20:31:04 10° SE 20:34:44 28° ENE 20:38:28 10° NNE
Cosmos 1943 3.6 20:31:33 10° S 20:36:49 41° ESE 20:42:07 10° NE
Cosmos 2228 3.0 20:32:59 10° N 20:37:24 73° E 20:41:47 10° SSE
Tsikada Rocket 4.2 20:34:36 10° SSE 20:40:50 57° E 20:47:04 10° NNE
Cosmos 1626 Rocket 3.5 20:36:47 10° S 20:41:11 71° E 20:45:34 10° NNE
Abrixas rocket 4.2 20:38:44 10° W 20:41:31 23° SW 20:44:18 10° S
YAOGAN 11 4.1 20:37:50 10° SSE 20:42:07 65° ENE 20:46:24 10° N
H-2A R/B 2.8 20:40:08 10° SSE 20:44:05 89° WSW 20:48:04 10° NNW
deb Chang Zheng 4 3.7 20:41:21 10° NNE 20:45:38 52° E 20:49:52 10° S
Cosmos 1939 Rocket 3.9 20:48:42 13° SE 20:51:55 32° ENE 20:55:37 10° N
Cosmos 1461 3.6 20:48:49 10° NW 20:52:53 49° WSW 20:56:44 10° S
ATLAS 5 CENTAUR R/B 3.0 20:54:11 10° S 20:55:24 11° SSE 20:56:00 11° SSE
Cosmos 1464 Rocket 4.3 20:49:25 10° N 20:55:33 72° W 21:01:43 10° S
Milstar 3 Cent rocket 4.0 20:48:45 10° W 20:56:46 29° SSW 21:01:24 12° SSE
Cosmos 1346 Rocket 4.1 20:55:11 15° SE 20:57:01 21° E 21:00:01 10° NE
Cosmos 1190 Rocket 4.2 20:55:18 10° S 21:00:23 50° ESE 21:05:31 10° NNE
CZ-3C R/B 3.6 20:55:24 10° WSW 21:02:17 18° SSW 21:04:49 12° SSE
SPOT 5 3.7 21:00:16 16° ESE 21:02:52 28° ENE 21:06:34 10° NNE
ATLAS 3B R/B 2.9 20:58:46 10° SSW 21:06:27 77° ESE 21:14:03 10° NNE
Delta 168 4.2 21:04:21 10° SW 21:06:31 17° S 21:07:20 16° SSE
Nimbus 7 Rocket 4.4 21:02:14 10° NNE 21:08:08 65° ESE 21:13:56 10° S
Cosmos 1666 4.3 21:09:54 10° NNW 21:13:28 34° W 21:17:00 10° SSW
Cosmos 2034 Rocket 4.4 21:11:21 10° NNW 21:17:38 64° W 21:23:48 10° S
Cosmos 676 Rocket 4.4 21:13:08 11° S 21:17:57 42° ESE 21:22:57 10° NNE
YAOGAN 6 4.2 21:18:24 19° E 21:19:13 20° ENE 21:21:59 10° NNE
GRACE-1 4.2 21:17:14 10° N 21:20:05 68° W 21:21:59 19° SSW
GRACE-2 4.2 21:17:40 10° N 21:20:31 67° W 21:22:24 19° SSW
ERS-1 Rocket 3.3 21:17:16 10° S 21:22:12 67° WSW 21:27:12 10° NNW
Cosmos 2369 Rocket 2.4 21:17:39 10° N 21:23:11 54° ENE 21:26:22 25° SE
COSMOS 2455 4.5 21:22:01 10° SW 21:27:30 37° WNW 21:33:02 10° N
DEBRIS 1.9 21:24:13 10° NW 21:28:12 90° ESE 21:28:40 53° SE
Cosmos 1932 4.5 21:22:31 10° S 21:28:28 53° ESE 21:34:29 10° NE
CZ-2C R/B 3.1 21:31:01 12° SW 21:32:18 17° W 21:33:56 10° NW
Cosmos 1758 Rocket 3.7 21:34:21 32° SSE 21:36:02 50° E 21:40:15 10° NNE
Envisat 3.0 21:37:30 24° S 21:40:40 86° WSW 21:45:46 10° NNW
SL-27 R/B 3.4 21:44:18 30° ENE 21:44:18 30° ENE 21:46:30 10° NNE
GEOS 3 Rocket 3.8 21:40:33 27° SSE 21:43:26 70° WSW 21:48:40 10° NW
Cosmos 407 Rocket 3.6 21:38:48 10° SSW 21:44:05 78° WNW 21:49:19 10° NNE
CZ-4C R/B 4.3 21:48:42 10° ENE 21:48:42 10° ENE 21:48:47 10° ENE
Cosmos 1825 Rocket 4.2 21:47:38 13° SSW 21:51:29 56° W 21:55:50 10° N
USA 238 DEB 3.7 21:47:17 10° SSW 21:54:19 69° ESE 22:01:21 10° NE
USA 238 3.7 21:47:24 10° SSW 21:54:25 68° ESE 22:01:26 10° NE
MetOp-A 4.1 21:54:19 35° SSE 21:56:42 88° ENE 22:02:05 10° NNW
Cosmos 2263 4.1 21:53:23 10° NNW 21:59:01 79° ENE 22:01:02 41° SSE
Lacrosse 4 Rocket 3.5 21:56:20 10° WSW 21:59:46 27° WNW 22:03:16 10° N
COSMOS 2406 3.2 22:03:21 39° SSE 22:05:16 59° ESE 22:10:53 10° NNE
Cosmos 1954 Rocket 4.0 22:02:05 22° SSW 22:05:35 87° WNW 22:10:55 10° NNE
Cosmos 2084 4.4 22:06:01 10° NNW 22:09:53 35° NE 22:10:11 35° ENE
H-2A R/B 4.3 22:07:40 10° SW 22:10:43 20° W 22:13:55 10° NW
CZ-4C R/B 4.1 22:11:59 42° ENE 22:11:59 42° ENE 22:15:33 10° N
Cosmos 1943 Rocket 2.4 22:06:49 10° N 22:12:15 53° ENE 22:13:25 45° ESE
SeaSat 1 2.3 22:12:25 56° SSE 22:13:30 86° ENE 22:18:28 10° NNW
Landsat 7 4.2 22:20:31 48° ENE 22:20:38 48° ENE 22:25:13 10° N
Atlas Centaur 2 3.0 22:15:55 10° W 22:23:05 58° S 22:25:27 44° SE
NOSS 3-2 (C) 4.4 22:30:29 30° E 22:30:29 30° E 22:34:33 10° NE
Cosmos 1953 3.0 22:25:37 10° N 22:28:40 46° NNE 22:28:40 46° NNE
Cosmos 1741 Rocket 3.8 22:30:05 70° SE 22:30:28 74° ESE 22:35:47 10° NNE
Geosat 3.8 22:31:05 10° NNE 22:36:05 75° ESE 22:36:05 75° ESE
Cosmos 1842 4.1 22:36:20 46° W 22:36:20 46° W 22:40:07 10° N
Terra 2.3 22:36:49 47° ENE 22:36:49 47° ENE 22:41:02 10° N
Cosmos 1092 Rocket 4.2 22:36:22 50° ESE 22:36:46 51° E 22:42:49 10° NNE
OAO 1 Rocket 4.3 22:32:07 10° WSW 22:37:01 72° SSW 22:37:01 72° SSW
ARGOS 3.4 22:41:02 53° SW 22:42:00 62° WSW 22:47:23 10° NNW
Cosmos-2242 3.2 22:37:46 10° N 22:41:48 69° NW 22:41:48 69° NW
Nadezhda 4 Rocket 3.9 22:42:56 61° S 22:44:07 83° E 22:50:29 10° N
Cosmos 1850 Rocket 4.0 22:45:13 64° SW 22:45:54 75° WNW 22:51:08 10° NNE
Cosmos 1140 Rocket 4.1 22:46:24 36° SW 22:48:11 53° WNW 22:53:20 10° N
H-2A R/B 2.0 22:54:58 77° NNE 22:54:58 77° NNE 22:59:43 10° N
Cosmos 1570 Rocket 4.0 22:49:58 10° NNW 22:55:11 83° NNE 22:55:11 83° NNE
Cosmos 2369 Rocket 4.2 23:03:16 10° WNW 23:06:39 16° W 23:08:12 15° WSW
Cosmos 614 Rocket 4.4 23:07:38 55° W 23:07:56 56° WNW 23:13:03 10° N
NOSS 3-2 (A) 3.3 23:10:04 81° SW 23:10:25 88° WNW 23:16:56 10° NNE
USA 234 3.1 23:11:49 70° ESE 23:12:38 82° NE 23:19:13 10° NW
Cosmos 1655 Rocket 4.3 23:18:06 54° ENE 23:18:06 54° ENE 23:23:35 10° NNE
Cosmos 2026 Rocket 4.1 23:24:08 60° NE 23:24:08 60° NE 23:29:24 10° NNE
Cosmos 2195 Rocket 4.4 23:25:08 74° NE 23:25:08 74° NE 23:30:59 10° N
Meteor 2-5 Rocket 3.8 23:25:22 75° NW 23:25:22 75° NW 23:30:49 10° N
CZ-4C R/B 2.5 23:33:48 59° NW 23:33:48 59° NW 23:39:19 10° NNE
Cosmos 1627 Rocket 4.5 23:37:34 76° NNW 23:37:34 76° NNW 23:43:16 10° N
Cosmos 2344 3.8 23:45:48 55° E 23:45:48 55° E 23:53:07 10° NE
Cosmos 1943 Rocket 4.2 23:52:05 10° WNW 23:54:56 16° W 23:54:56 16° W
